Retour au catalogue

FENGYUN 1C DEB

ActifSSO
NORAD 30280·DEBRIS·🇨🇳 China

Lancé May 10, 1999 depuis Taiyuan Satellite Launch Center

Loading…

Prochains Passages (prochaines 24 heures)

TLE

FraisSource: Space-Track

Époque: Sep 14, 2026, 17:05 UTC

1 30280U 99025YR  26257.71204948  .00000465  00000-0  34472-3 0  9993
2 30280  98.7991 240.5857 0079126 284.2677 251.7801 13.98549122  2314

Suivez FENGYUN 1C DEB en temps réel avec AllMySat

Download on the App Store